{"data":{"norad_id":66444,"intl_designator":"2025-259Y","name":"STARLINK-35360","alt_names":[],"object_type":"PAYLOAD","status":"ACTIVE","operator":null,"country":"US","launch_date":"2025-11-11","launch_site_code":"AFETR","launch_vehicle":null,"mission":null,"orbit_class":"UNKNOWN","rcs_meters":null,"size_class":null,"mass_kg":null,"dimensions":null,"purposes":["comms"],"wikipedia_slug":null,"has_3d_model":false,"image_url":null,"decayed_at":null,"tle_current":{"epoch":"2026-09-20T08:01:50.786112Z","epoch_age_seconds":107709,"freshness":"FRESH","line1":"1 66444U 25259Y   26263.33461558  .00014339  00000+0  52937-3 0  9999","line2":"2 66444  42.9972 254.7462 0001412 279.4958  80.5734 15.27591756 49267","mean_motion":15.27591756,"eccentricity":0.0001412,"inclination_deg":42.9972,"raan_deg":254.7462,"arg_perigee_deg":279.4958,"mean_anomaly_deg":80.5734,"bstar":0.00052937,"rev_number":4926,"period_min":94.266023258115,"perigee_km":482.04510006589,"apogee_km":483.98268907852,"semimajor_km":6861.1508945722,"source":"CELESTRAK","updated_at":"2026-09-21T09:00:35.910680Z"}}}